Selinsgrove, PA

2:52 PM EDT on September 25, 2016 (GMT -0400)
Penn Valley

Weather History for KSEG - November, 2012

Change the Weather History Date:

Wednesday, November 7, 2012

  Actual Average (KIPT) Record (KIPT)
Temperature  
Mean Temperature 36 °F 45 °F  
Max Temperature 43 °F 54 °F 77 °F (1938)
Min Temperature 28 °F 35 °F 20 °F (1931)
Degree Days  
Heating Degree Days 30 20  
Month to date heating degree days 136  
Since 1 July heating degree days 679  
Cooling Degree Days 0 0  
Month to date cooling degree days 0  
Year to date cooling degree days 702  
Moisture  
Dew Point 23 °F    
Average Humidity 61    
Maximum Humidity 92    
Minimum Humidity 43    
Precipitation  
Precipitation 0.00 in 0.11 in 1.92 in (1941)
Month to date precipitation 0.81  
Year to date precipitation 35.42  
Snow  
Snow 0.00 in 0.00 in 7.10 in (1953)
Month to date snowfall 0.2  
Since 1 July snowfall 0.3  
Since 1 September snowfall 0.3  
Snow Depth -    
Sea Level Pressure  
Sea Level Pressure 30.00 in    
Wind  
Wind Speed 5 mph (North)    
Max Wind Speed 10 mph    
Max Gust Speed -    
Visibility 10 miles    
Events      
T = Trace of Precipitation, MM = Missing Value Source: NWS Daily Summary

Daily Weather History Graph

Daily Weather History Graph

Search for Another Location

Airport or City:

Trip Planner

Search our weather history database for the weather conditions in past years. The results will help you decide how hot, cold, wet, or windy it might be!

Date:

Astronomy

Nov. 07, 2012 Rise Set
Actual Time 6:45 AM EST 4:56 PM EST
Civil Twilight 6:16 AM EST 5:25 PM EST
Nautical Twilight 5:43 AM EST 5:57 PM EST
Astronomical Twilight 5:11 AM EST 6:29 PM EST
Moon No Moon Rise 1:06 PM EST (11/7)
Length of Visible Light 11h 08m
Length of Day
10h 10m
Last Quarter, 43% of the Moon is Illuminated
Nov 7
Last Quarter
Nov 13
New
Nov 20
First Quarter
Nov 28
Full
Dec 6
Last Quarter

Hourly Weather History & Observations

Time (EST) Temp. Windchill Dew Point Humidity Pressure Visibility Wind Dir Wind Speed Gust Speed Precip Events Conditions
12:53 AM 28.0 °F 24.2 °F 26.1 °F 92% 30.09 in 9.0 mi NNW 3.5 mph - N/A   Partly Cloudy
1:53 AM 28.9 °F 23.9 °F 25.0 °F 85% 30.06 in 9.0 mi NNW 4.6 mph - N/A   Clear
2:53 AM 30.0 °F 25.2 °F 26.1 °F 85% 30.04 in 10.0 mi NNW 4.6 mph - N/A   Clear
3:53 AM 28.9 °F 23.9 °F 25.0 °F 85% 30.03 in 10.0 mi North 4.6 mph - N/A   Clear
4:53 AM 30.0 °F 25.2 °F 25.0 °F 82% 30.02 in 10.0 mi NNW 4.6 mph - N/A   Clear
5:53 AM 30.0 °F - 23.0 °F 75% 30.01 in 10.0 mi Calm Calm - N/A   Clear
6:53 AM 28.9 °F - 23.0 °F 78% 30.04 in 10.0 mi Calm Calm - N/A   Clear
7:53 AM 30.9 °F 25.2 °F 23.0 °F 72% 30.05 in 10.0 mi NNW 5.8 mph - N/A   Clear
8:53 AM 33.1 °F 28.7 °F 24.1 °F 70% 30.04 in 10.0 mi NNW 4.6 mph - N/A   Clear
9:53 AM 37.0 °F 31.0 °F 24.1 °F 59% 30.02 in 10.0 mi North 8.1 mph - N/A   Clear
10:53 AM 39.0 °F 32.8 °F 24.1 °F 55% 30.00 in 10.0 mi NNE 9.2 mph - N/A   Clear
11:53 AM 43.0 °F 37.2 °F 26.1 °F 51% 29.97 in 10.0 mi North 10.4 mph - N/A   Clear
12:53 PM 43.0 °F 38.2 °F 26.1 °F 51% 29.96 in 10.0 mi North 8.1 mph - N/A   Clear
1:53 PM 43.0 °F 37.2 °F 25.0 °F 49% 29.95 in 10.0 mi NNW 10.4 mph - N/A   Clear
2:53 PM 43.0 °F 37.7 °F 23.0 °F 45% 29.95 in 10.0 mi NNE 9.2 mph - N/A   Partly Cloudy
3:53 PM 43.0 °F 38.2 °F 23.0 °F 45% 29.96 in 10.0 mi North 8.1 mph - N/A   Partly Cloudy
4:53 PM 41.0 °F 35.2 °F 19.9 °F 43% 29.97 in 10.0 mi NNE 9.2 mph - N/A   Clear
5:53 PM 39.9 °F 35.8 °F 21.9 °F 49% 29.99 in 10.0 mi NE 5.8 mph - N/A   Scattered Clouds
6:53 PM 39.9 °F 34.5 °F 21.9 °F 49% 29.99 in 10.0 mi North 8.1 mph - N/A   Clear
7:53 PM 39.0 °F 34.0 °F 21.9 °F 50% 29.99 in 10.0 mi NNW 6.9 mph - N/A   Clear
8:53 PM 37.9 °F 32.1 °F 21.9 °F 53% 30.00 in 10.0 mi North 8.1 mph - N/A   Partly Cloudy
9:53 PM 37.9 °F 31.5 °F 21.0 °F 51% 29.99 in 10.0 mi NNW 9.2 mph - N/A   Partly Cloudy
10:53 PM 37.9 °F - 19.9 °F 48% 29.99 in 10.0 mi Calm Calm - N/A   Clear
11:53 PM 37.9 °F - 19.0 °F 47% 29.97 in 10.0 mi Calm Calm - N/A   Scattered Clouds